This demonstration page uses our WeatherBlox Daily Observations layout. Learn more.

Left ArrowRight Arrow

38.89511, -77.03637

Hourly Observations for June 20, 2015

Temp ( °F °C ) Dew Point ( °F °C ) Humidity (%) Winds ( mph kmh ) Pressure ( in mb ) Visibility ( mi km ) Precip ( " mm )
12:52 am 00:52 Cloudy 77 25 69 20.6 77 77 WNW 7 11 30.00 1016 10 16 N/A
1:52 am 01:52 Clear 78 25.6 67 19.4 69 69 WNW 3 6 29.99 1016 10 16 N/A
2:52 am 02:52 Cloudy 78 25.6 68 20 71 71 N 3 6 29.99 1016 10 16 N/A
3:52 am 03:52 Cloudy 77 25 67 19.4 71 71 N N/A 29.99 1016 10 16 N/A
4:52 am 04:52 Cloudy 77 25 68 20 74 74 N 5 7 29.99 1016 10 16 N/A
5:52 am 05:52 Cloudy 77 25 67 19.4 71 71 NW 3 6 30.00 1016 10 16 N/A
6:26 am 06:26 Cloudy 77 25 68 20 74 74 N N/A 30.00 1016 10 16 N/A
6:52 am 06:52 Cloudy 77 25 68 20 74 74 N N/A 30.00 1016 10 16 N/A
7:52 am 07:52 Cloudy 79 26.1 70 21.1 74 74 N N/A 30.01 1016 10 16 N/A
8:52 am 08:52 Cloudy 80 26.7 69 20.6 69 69 N N/A 30.01 1016 10 16 N/A
9:52 am 09:52 Cloudy 82 27.8 70 21.1 67 67 N N/A 30.01 1016 10 16 N/A
10:08 am 10:08 Cloudy with Light Rain 82 28 70 21 66 66 N N/A 30.00 1016 10 16 N/A
10:25 am 10:25 Cloudy 82 28 70 21 66 66 N N/A 30.00 1016 10 16 N/A
10:52 am 10:52 Cloudy 83 28.3 70 21.1 65 65 S 3 6 30.00 1016 10 16 N/A
11:52 am 11:52 Mostly Cloudy 85 29.4 72 22.2 65 65 S 6 9 29.99 1016 10 16 N/A
12:52 pm 12:52 Mostly Cloudy 86 30 73 22.8 65 65 N N/A 29.97 1015 10 16 N/A
1:52 pm 13:52 Mostly Cloudy 89 31.7 73 22.8 59 59 S 6 9 29.95 1014 10 16 N/A
2:52 pm 14:52 Mostly Cloudy 91 32.8 75 23.9 59 59 S 8 13 29.93 1014 10 16 N/A
3:52 pm 15:52 Mostly Sunny 92 33.3 75 23.9 58 58 S 12 19 29.90 1013 10 16 N/A
4:52 pm 16:52 Cloudy 89 31.7 75 23.9 63 63 SE 15 24 29.87 1012 10 16 N/A
5:36 pm 17:36 Cloudy 88 31 75 24 66 66 SSE 15 24 29.83 1010 10 16 N/A
5:52 pm 17:52 Cloudy 89 31.7 76 24.4 65 65 SE 16 26 29.83 1010 10 16 N/A
6:27 pm 18:27 Cloudy with Thunderstorms 88 31 75 24 66 66 SE 13 20 29.83 1010 10 16 N/A
6:52 pm 18:52 Cloudy with Thunderstorms 85 29.4 76 24.4 75 75 SE 13 20 29.82 1010 9 14 N/A
7:09 pm 19:09 Cloudy with Thunderstorms 84 29 77 25 79 79 E 7 11 29.83 1010 7 11 0.04 1.02
7:33 pm 19:33 Cloudy with Thunderstorms 84 29 75 24 74 74 VRB 6 9 29.80 1009 10 16 0.04 1.02
7:52 pm 19:52 Cloudy with Thunderstorms 84 28.9 76 24.4 77 77 SE 9 15 29.80 1009 10 16 0.04 1.02
8:03 pm 20:03 Cloudy with Thunderstorms 84 29 75 24 74 74 SE 13 20 29.80 1009 10 16 N/A
8:18 pm 20:18 Windy with Storms Likely 82 28 73 23 74 74 W 29 46 29.85 1011 6 10 N/A
8:21 pm 20:21 Cloudy with Thunderstorms 79 26 72 22 79 79 WSW 24 39 29.85 1011 2 3 N/A
8:26 pm 20:26 Cloudy with Strong Thunderstorms 75 24 72 22 89 89 WSW 14 22 29.88 1012 1 1 N/A
8:36 pm 20:36 Cloudy with Strong Thunderstorms 75 24 72 22 89 89 W 22 35 29.83 1010 1 2 N/A
8:43 pm 20:43 Cloudy with Strong Thunderstorms 75 24 72 22 89 89 WSW 15 24 29.83 1010 2 3 0.73 18.54
8:49 pm 20:49 Cloudy with Strong Thunderstorms 75 24 72 22 89 89 VRB 7 11 29.83 1010 2 3 0.76 19.30
8:52 pm 20:52 Cloudy with Strong Thunderstorms 76 24.4 72 22.2 88 88 SSW 8 13 29.83 1010 3 4 0.83 21.08
8:56 pm 20:56 Cloudy with Strong Thunderstorms 75 24 72 22 89 89 SW 13 20 29.83 1010 1 2 0.04 1.02
9:08 pm 21:08 Cloudy with Strong Thunderstorms 75 24 72 22 89 89 S 9 15 29.83 1010 2 3 N/A
9:17 pm 21:17 Cloudy with Strong Thunderstorms 77 25 73 23 89 89 SSE 10 17 29.83 1010 1 1 0.69 17.53
9:24 pm 21:24 Cloudy with Strong Thunderstorms 75 24 73 23 94 94 ENE 12 19 29.80 1009 1 2 N/A
9:29 pm 21:29 Cloudy with Thunderstorms 75 24 73 23 94 94 ENE 13 20 29.80 1009 4 6 1.02 25.91
9:42 pm 21:42 Cloudy with Strong Thunderstorms 75 24 73 23 94 94 SSE 9 15 29.83 1010 2 3 1.13 28.70
9:52 pm 21:52 Cloudy with Strong Thunderstorms 76 24.4 72 22.2 88 88 S 14 22 29.83 1010 3 5 1.21 30.73
9:59 pm 21:59 Cloudy with Strong Thunderstorms 77 25 73 23 89 89 S 15 24 29.83 1010 4 6 0.03 0.76
10:36 pm 22:36 Cloudy with Strong Thunderstorms 77 25 72 22 83 83 S 10 17 29.80 1009 4 6 0.20 5.08
10:52 pm 22:52 Cloudy with Thunderstorms 76 24.4 72 22.2 88 88 SSE 9 15 29.80 1009 7 11 0.25 6.35
11:09 pm 23:09 Cloudy with Light Rain 75 24 72 22 89 89 SSE 9 15 29.80 1009 10 16 0.03 0.76

Powered by AerisWeather